Weather History for KPNE - July, 2013

Change the Weather History Date:

Wednesday, July 24, 2013

  Actual Average Record
Temperature  
Mean Temperature 74 °F -  
Max Temperature 81 °F 83 °F - (-1)
Min Temperature 66 °F 64 °F - (-1)
Cooling Degree Days 9    
Growing Degree Days 24 (Base 50)    
Moisture  
Dew Point 66 °F    
Average Humidity 72    
Maximum Humidity 79    
Minimum Humidity 55    
Precipitation  
Precipitation 0.00 in - - ()
Sea Level Pressure  
Sea Level Pressure 29.79 in    
Wind  
Wind Speed 8 mph (NW)    
Max Wind Speed 17 mph    
Max Gust Speed 16 mph    
Visibility 10 miles    
Events      
Averages and records for this station are not official NWS values.
T = Trace of Precipitation, MM = Missing Value Source: NWS Daily Summary

Daily Weather History Graph

Daily Weather History Graph

Search for Another Location

Airport or City:

Trip Planner

Search our weather history database for the weather conditions in past years. The results will help you decide how hot, cold, wet, or windy it might be!

Date:

Astronomy

Jul. 24, 2013 Rise Set
Actual Time 5:51 AM EDT 8:21 PM EDT
Civil Twilight 5:20 AM EDT 8:52 PM EDT
Nautical Twilight 4:41 AM EDT 9:30 PM EDT
Astronomical Twilight 3:58 AM EDT 10:13 PM EDT
Moon 9:25 PM EDT (7/24) 8:08 AM EDT (7/24)
Length of Visible Light 15h 32m
Length of Day
14h 30m
Waning Gibbous, 95% of the Moon is Illuminated
Jul 24
Waning Gibbous
Jul 29
Last Quarter
Aug 6
New
Aug 14
First Quarter
Aug 20
Full

Hourly Weather History & Observations

Time (EDT) Temp. Heat Index Dew Point Humidity Pressure Visibility Wind Dir Wind Speed Gust Speed Precip Events Conditions
12:54 AM 75.0 °F - 68.0 °F 79% 29.68 in 10.0 mi WSW 5.8 mph - N/A   Clear
1:54 AM 75.0 °F - 66.9 °F 76% 29.68 in 10.0 mi West 4.6 mph - N/A   Clear
2:54 AM 75.0 °F - 64.9 °F 71% 29.67 in 10.0 mi WNW 5.8 mph - N/A   Clear
3:54 AM 73.9 °F - 64.9 °F 73% 29.66 in 10.0 mi WNW 5.8 mph - N/A   Clear
4:54 AM 73.0 °F - 64.9 °F 76% 29.67 in 10.0 mi West 4.6 mph - N/A   Clear
5:54 AM 72.0 °F - 64.9 °F 78% 29.69 in 9.0 mi West 5.8 mph - N/A   Clear
6:54 AM 73.0 °F - 64.9 °F 76% 29.70 in 10.0 mi West 3.5 mph - N/A   Clear
8:54 AM 79.0 °F - 64.0 °F 60% 29.74 in 10.0 mi NNW 6.9 mph - N/A   Clear
9:54 AM 78.1 °F - 64.9 °F 64% 29.76 in 10.0 mi NNW 6.9 mph - N/A   Clear
10:54 AM 78.1 °F - 64.9 °F 64% 29.77 in - NNW 8.1 mph - N/A   Clear
11:54 AM 79.0 °F - 69.1 °F 72% 29.78 in 10.0 mi NNW 10.4 mph - N/A   Scattered Clouds
12:06 PM 78.8 °F - 69.8 °F 74% 29.79 in 10.0 mi WNW 11.5 mph - N/A   Mostly Cloudy
12:30 PM 78.8 °F - 71.6 °F 78% 29.80 in 10.0 mi North 9.2 mph - N/A   Scattered Clouds
12:54 PM 79.0 °F - 71.1 °F 77% 29.80 in 10.0 mi WNW 9.2 mph - N/A   Partly Cloudy
1:54 PM 79.0 °F - 70.0 °F 74% 29.80 in 10.0 mi NNW 11.5 mph 16.1 mph N/A   Mostly Cloudy
2:01 PM 78.8 °F - 69.8 °F 74% 29.80 in 10.0 mi NNW 10.4 mph - N/A   Mostly Cloudy
2:08 PM 80.6 °F 84.6 °F 71.6 °F 74% 29.80 in 10.0 mi NW 10.4 mph - N/A   Scattered Clouds
2:54 PM 79.0 °F - 70.0 °F 74% 29.81 in 10.0 mi NNW 12.7 mph - N/A   Scattered Clouds
3:54 PM 78.1 °F - 69.1 °F 74% 29.81 in 10.0 mi North 10.4 mph - N/A   Mostly Cloudy
4:54 PM 80.1 °F 84.2 °F 73.0 °F 79% 29.81 in 10.0 mi NW 10.4 mph - N/A   Mostly Cloudy
5:54 PM 78.1 °F - 71.1 °F 79% 29.82 in 10.0 mi North 11.5 mph - N/A   Scattered Clouds
6:54 PM 79.0 °F - 71.1 °F 77% 29.83 in 10.0 mi North 5.8 mph - N/A   Clear
7:54 PM 77.0 °F - 66.9 °F 71% 29.85 in 10.0 mi North 8.1 mph - N/A   Clear
8:54 PM 73.9 °F - 63.0 °F 68% 29.88 in 10.0 mi North 17.3 mph - N/A   Overcast
9:54 PM 72.0 °F - 55.0 °F 55% 29.91 in 10.0 mi North 13.8 mph - N/A   Overcast
10:54 PM 68.0 °F - 54.0 °F 61% 29.94 in 10.0 mi North 9.2 mph - N/A   Clear
11:54 PM 66.0 °F - 54.0 °F 65% 29.95 in 10.0 mi North 9.2 mph - N/A   Clear